TimeEST,TemperatureF,Dew PointF,Humidity,Sea Level PressureIn,VisibilityMPH,Wind Direction,Wind SpeedMPH,Gust SpeedMPH,PrecipitationIn,Events,Conditions,WindDirDegrees,DateUTC
12:56 AM,36.0,19.9,52,29.98,9.0,West,11.5,-,N/A,,Overcast,270,2012-11-25 05:56:00
1:56 AM,35.1,19.9,54,30.00,10.0,WNW,10.4,-,N/A,,Overcast,290,2012-11-25 06:56:00
2:56 AM,35.1,19.9,54,30.01,10.0,WNW,15.0,23.0,N/A,,Overcast,290,2012-11-25 07:56:00
3:56 AM,35.1,19.9,54,30.01,10.0,WNW,9.2,-,N/A,,Overcast,290,2012-11-25 08:56:00
4:56 AM,35.1,19.9,54,30.01,10.0,West,9.2,-,N/A,,Overcast,270,2012-11-25 09:56:00
5:56 AM,35.1,19.9,54,30.01,10.0,West,9.2,-,N/A,,Overcast,260,2012-11-25 10:56:00
6:56 AM,34.0,19.9,56,30.03,10.0,West,9.2,-,N/A,,Overcast,270,2012-11-25 11:56:00
7:56 AM,34.0,19.0,54,30.02,10.0,West,8.1,-,N/A,,Mostly Cloudy,280,2012-11-25 12:56:00
8:56 AM,35.1,19.0,52,30.02,10.0,West,8.1,-,N/A,,Overcast,270,2012-11-25 13:56:00
9:56 AM,34.0,19.0,54,30.03,10.0,West,13.8,19.6,N/A,,Overcast,270,2012-11-25 14:56:00
10:56 AM,35.1,19.0,52,30.03,10.0,WNW,10.4,17.3,N/A,,Overcast,290,2012-11-25 15:56:00
11:56 AM,36.0,19.9,52,29.99,10.0,West,9.2,-,N/A,,Overcast,260,2012-11-25 16:56:00
12:56 PM,37.0,19.9,50,29.96,10.0,West,6.9,-,N/A,,Overcast,260,2012-11-25 17:56:00
1:56 PM,37.9,21.0,51,29.94,10.0,WNW,9.2,-,N/A,,Mostly Cloudy,290,2012-11-25 18:56:00
2:56 PM,39.9,21.0,47,29.93,10.0,SW,6.9,-,N/A,,Mostly Cloudy,230,2012-11-25 19:56:00
3:56 PM,39.0,21.0,49,29.92,10.0,SSW,6.9,-,N/A,,Clear,210,2012-11-25 20:56:00
4:56 PM,37.0,19.9,50,29.92,10.0,Calm,Calm,-,N/A,,Clear,0,2012-11-25 21:56:00
5:56 PM,34.0,21.0,59,29.94,10.0,SSW,5.8,-,N/A,,Clear,210,2012-11-25 22:56:00
6:56 PM,36.0,19.9,52,29.95,10.0,SW,9.2,-,N/A,,Clear,220,2012-11-25 23:56:00
7:56 PM,35.1,19.9,54,29.97,10.0,West,3.5,-,N/A,,Clear,280,2012-11-26 00:56:00
8:56 PM,33.1,19.9,59,29.98,10.0,WSW,5.8,-,N/A,,Clear,240,2012-11-26 01:56:00
9:56 PM,32.0,21.0,64,29.99,10.0,West,3.5,-,N/A,,Clear,260,2012-11-26 02:56:00
10:56 PM,32.0,19.9,61,29.99,10.0,Calm,Calm,-,N/A,,Clear,0,2012-11-26 03:56:00
11:56 PM,28.0,19.9,72,30.01,10.0,Calm,Calm,-,N/A,,Partly Cloudy,0,2012-11-26 04:56:00